QPF
0.03 0.03 0.04 0.04 0.02 0.03 0.03 0.04 0.05 0.04 0.04 0.04 0.03 0.03 0.03 0.06 0.06 0.05 0.07 0.07 0.08 0.08 0.07 0.05 0.04 0.04 0.06 0.08 0.05 0.05 0.06 0.06 0.06 0.06 0.06 0.06 0.06 0.06
0.03 0.03 0.03 0.04 0.03 0.03 0.03 0.04 0.04 0.05 0.04 0.03 0.02 0.02 0.02 0.03 0.05 0.06 0.07 0.07 0.07 0.08 0.07 0.06 0.05 0.04 0.05 0.05 0.04 0.03 0.03 0.03 0.03 0.03 0.03 0.03 0.03 0.03
0.04 0.03 0.02 0.03 0.04 0.04 0.03 0.04 0.04 0.04 0.05 0.05 0.03 0.02 0.03 0.03 0.03 0.04 0.06 0.06 0.07 0.07 0.07 0.07 0.06 0.06 0.05 0.06 0.06 0.04 0.03 0.02 0.02 0.02 0.02 0.02 0.02 0.02
0.04 0.04 0.03 0.03 0.04 0.03 0.03 0.04 0.04 0.04 0.05 0.05 0.04 0.03 0.03 0.04 0.04 0.03 0.04 0.05 0.05 0.05 0.07 0.08 0.08 0.07 0.05 0.04 0.05 0.03 0.03 0.02 0.01 0.01 0.01 0.02 0.02 0.02
0.03 0.04 0.04 0.04 0.05 0.05 0.03 0.03 0.03 0.03 0.04 0.04 0.05 0.04 0.03 0.04 0.05 0.05 0.04 0.06 0.05 0.05 0.05 0.07 0.07 0.07 0.06 0.05 0.04 0.04 0.03 0.02 0.02 0.01 0.01 0.01 0.02 0.02
0.02 0.02 0.02 0.02 0.04 0.05 0.03 0.02 0.02 0.03 0.03 0.04 0.05 0.05 0.04 0.04 0.07 0.07 0.05 0.05 0.05 0.04 0.05 0.06 0.06 0.06 0.05 0.04 0.04 0.04 0.04 0.03 0.02 0.02 0.02 0.02 0.02 0.02
0.01 0.01 0.01 0.02 0.02 0.03 0.03 0.02 0.02 0.02 0.02 0.03 0.05 0.05 0.05 0.04 0.07 0.08 0.06 0.05 0.04 0.04 0.05 0.05 0.05 0.05 0.04 0.04 0.04 0.04 0.04 0.03 0.02 0.02 0.02 0.02 0.02 0.02
0.01 0.01 0.01 0.02 0.01 0.02 0.02 0.02 0.02 0.02 0.02 0.02 0.04 0.05 0.05 0.05 0.06 0.06 0.06 0.06 0.05 0.03 0.03 0.04 0.05 0.06 0.05 0.04 0.04 0.03 0.04 0.04 0.03 0.03 0.02 0.02 0.02 0.01
0.00 0.01 0.01 0.01 0.02 0.02 0.02 0.02 0.02 0.02 0.02 0.02 0.03 0.04 0.04 0.04 0.04 0.05 0.05 0.05 0.04 0.02 0.02 0.03 0.04 0.04 0.03 0.03 0.03 0.03 0.03 0.03 0.03 0.03 0.03 0.02 0.02 0.02
0.00 0.01 0.01 0.01 0.01 0.02 0.02 0.02 0.02 0.01 0.01 0.01 0.01 0.02 0.03 0.03 0.03 0.03 0.03 0.03 0.03 0.02 0.02 0.03 0.02 0.03 0.03 0.03 0.02 0.03 0.03 0.03 0.03 0.03 0.04 0.04 0.04 0.04
0.00 0.00 0.01 0.02 0.02 0.01 0.02 0.01 0.01 0.01 0.00 0.00 0.01 0.01 0.01 0.02 0.02 0.02 0.03 0.03 0.02 0.02 0.01 0.02 0.02 0.03 0.03 0.04 0.04 0.04 0.03 0.03 0.02 0.02 0.03 0.03 0.04 0.04
0.00 0.00 0.00 0.01 0.01 0.01 0.01 0.01 0.01 0.01 0.01 0.01 0.01 0.01 0.01 0.01 0.01 0.02 0.02 0.03 0.03 0.02 0.02 0.02 0.02 0.03 0.03 0.03 0.03 0.04 0.04 0.04 0.04 0.03 0.03 0.03 0.03 0.03
0.00 0.00 0.01 0.01 0.01 0.00 0.00 0.01 0.01 0.01 0.01 0.01 0.01 0.01 0.01 0.01 0.01 0.01 0.02 0.02 0.03 0.03 0.01 0.01 0.02 0.03 0.04 0.03 0.02 0.02 0.02 0.02 0.02 0.02 0.02 0.02 0.02 0.02
0.00 0.00 0.01 0.01 0.01 0.01 0.01 0.01 0.01 0.01 0.01 0.01 0.01 0.01 0.01 0.01 0.01 0.01 0.01 0.01 0.02 0.02 0.02 0.01 0.02 0.02 0.03 0.04 0.03 0.02 0.01 0.01 0.01 0.01 0.02 0.02 0.02 0.02
0.00 0.00 0.00 0.00 0.00 0.01 0.01 0.02 0.02 0.02 0.01 0.01 0.01 0.01 0.01 0.01 0.01 0.01 0.01 0.01 0.01 0.01 0.02 0.02 0.02 0.02 0.03 0.04 0.04 0.03 0.02 0.02 0.01 0.01 0.02 0.02 0.01 0.01
0.01 0.01 0.00 0.01 0.00 0.00 0.01 0.01 0.02 0.03 0.04 0.02 0.01 0.01 0.01 0.02 0.02 0.02 0.02 0.02 0.02 0.02 0.02 0.02 0.02 0.03 0.02 0.03 0.03 0.04 0.04 0.02 0.01 0.02 0.02 0.02 0.01 0.01
0.01 0.01 0.01 0.01 0.01 0.01 0.00 0.01 0.01 0.02 0.03 0.05 0.04 0.03 0.03 0.03 0.03 0.02 0.03 0.03 0.02 0.02 0.02 0.02 0.03 0.04 0.03 0.03 0.02 0.02 0.03 0.03 0.03 0.02 0.02 0.02 0.02 0.01
0.01 0.00 0.01 0.01 0.01 0.01 0.01 0.01 0.01 0.02 0.03 0.03 0.04 0.05 0.05 0.04 0.04 0.03 0.04 0.05 0.04 0.03 0.03 0.03 0.02 0.03 0.03 0.03 0.02 0.02 0.02 0.02 0.02 0.02 0.01 0.01 0.01 0.01
0.01 0.00 0.00 0.01 0.00 0.01 0.01 0.01 0.02 0.02 0.02 0.03 0.04 0.04 0.05 0.05 0.06 0.04 0.04 0.05 0.05 0.04 0.04 0.04 0.04 0.03 0.03 0.02 0.02 0.01 0.01 0.02 0.02 0.01 0.01 0.01 0.01 0.01
0.01 0.01 0.01 0.01 0.01 0.00 0.00 0.00 0.01 0.01 0.01 0.01 0.02 0.04 0.05 0.04 0.04 0.06 0.05 0.04 0.05 0.04 0.04 0.04 0.03 0.03 0.02 0.02 0.02 0.02 0.02 0.02 0.02 0.01 0.01 0.01 0.00 0.00
0.00 0.01 0.01 0.01 0.01 0.01 0.01 0.00 0.00 0.00 0.00 0.01 0.01 0.02 0.03 0.05 0.05 0.04 0.05 0.05 0.04 0.04 0.04 0.03 0.03 0.03 0.02 0.02 0.03 0.02 0.02 0.01 0.01 0.01 0.01 0.00 0.00 0.00
0.00 0.01 0.01 0.01 0.01 0.01 0.01 0.01 0.00 0.00 0.00 0.00 0.00 0.01 0.02 0.03 0.04 0.04 0.04 0.04 0.04 0.04 0.04 0.03 0.03 0.02 0.02 0.02 0.02 0.01 0.01 0.01 0.01 0.01 0.00 0.00 0.00 0.00
0.01 0.01 0.01 0.01 0.02 0.02 0.02 0.02 0.01 0.01 0.00 0.00 0.00 0.00 0.01 0.01 0.03 0.04 0.05 0.04 0.03 0.03 0.04 0.03 0.03 0.02 0.03 0.02 0.02 0.01 0.01 0.01 0.01 0.00 0.00 0.01 0.00 0.00
MSLP
1012.66 1012.57 1012.57 1012.66 1012.83 1013.04 1013.27 1013.47 1013.62 1013.71 1013.72 1013.66 1013.55 1013.42 1013.27 1013.15 1013.07 1013.03 1013.06 1013.14 1013.27 1013.44 1013.65 1013.87 1014.10 1014.32 1014.54 1014.73 1014.91 1015.07 1015.22 1015.37 1015.52 1015.68 1015.85 1016.03 1016.23 1016.42
1012.80 1012.68 1012.64 1012.69 1012.83 1013.01 1013.22 1013.42 1013.59 1013.71 1013.77 1013.76 1013.71 1013.62 1013.51 1013.41 1013.33 1013.28 1013.28 1013.32 1013.40 1013.54 1013.70 1013.88 1014.09 1014.29 1014.49 1014.67 1014.84 1014.99 1015.11 1015.23 1015.34 1015.44 1015.56 1015.68 1015.82 1015.95
1012.97 1012.82 1012.75 1012.76 1012.85 1012.99 1013.17 1013.36 1013.53 1013.67 1013.76 1013.80 1013.80 1013.76 1013.70 1013.63 1013.57 1013.52 1013.50 1013.52 1013.57 1013.66 1013.79 1013.94 1014.11 1014.30 1014.48 1014.65 1014.80 1014.93 1015.03 1015.11 1015.17 1015.23 1015.28 1015.34 1015.40 1015.48
1013.16 1012.99 1012.90 1012.87 1012.91 1013.02 1013.16 1013.32 1013.48 1013.62 1013.73 1013.81 1013.85 1013.86 1013.84 1013.81 1013.77 1013.74 1013.71 1013.71 1013.74 1013.79 1013.88 1014.00 1014.14 1014.30 1014.46 1014.62 1014.75 1014.86 1014.94 1014.98 1015.00 1015.00 1014.99 1014.98 1014.99 1015.00
1013.34 1013.18 1013.07 1013.02 1013.03 1013.09 1013.19 1013.32 1013.45 1013.59 1013.70 1013.80 1013.87 1013.91 1013.93 1013.93 1013.92 1013.90 1013.88 1013.87 1013.87 1013.90 1013.95 1014.03 1014.14 1014.27 1014.41 1014.54 1014.66 1014.74 1014.80 1014.81 1014.79 1014.75 1014.69 1014.63 1014.57 1014.53
1013.46 1013.33 1013.23 1013.18 1013.16 1013.19 1013.26 1013.35 1013.45 1013.56 1013.66 1013.76 1013.84 1013.91 1013.95 1013.98 1013.99 1013.99 1013.97 1013.96 1013.95 1013.95 1013.97 1014.02 1014.10 1014.19 1014.30 1014.41 1014.50 1014.57 1014.60 1014.60 1014.56 1014.48 1014.38 1014.28 1014.18 1014.10
1013.46 1013.38 1013.31 1013.27 1013.26 1013.28 1013.31 1013.37 1013.44 1013.52 1013.60 1013.68 1013.76 1013.84 1013.90 1013.95 1013.98 1013.99 1013.99 1013.98 1013.96 1013.95 1013.95 1013.96 1014.01 1014.07 1014.15 1014.23 1014.30 1014.35 1014.38 1014.36 1014.31 1014.21 1014.10 1013.96 1013.83 1013.71
1013.29 1013.27 1013.26 1013.26 1013.27 1013.28 1013.31 1013.35 1013.39 1013.44 1013.49 1013.56 1013.63 1013.70 1013.77 1013.83 1013.88 1013.91 1013.92 1013.92 1013.91 1013.89 1013.88 1013.88 1013.89 1013.93 1013.98 1014.03 1014.09 1014.13 1014.14 1014.12 1014.07 1013.98 1013.85 1013.71 1013.56 1013.42
1012.91 1012.97 1013.03 1013.08 1013.13 1013.17 1013.21 1013.24 1013.26 1013.29 1013.33 1013.37 1013.43 1013.49 1013.56 1013.64 1013.71 1013.76 1013.80 1013.82 1013.82 1013.81 1013.80 1013.79 1013.79 1013.80 1013.82 1013.86 1013.90 1013.93 1013.94 1013.92 1013.88 1013.79 1013.68 1013.54 1013.39 1013.23
1012.35 1012.49 1012.62 1012.73 1012.83 1012.92 1012.98 1013.02 1013.05 1013.07 1013.10 1013.13 1013.18 1013.24 1013.31 1013.40 1013.49 1013.57 1013.64 1013.69 1013.72 1013.73 1013.73 1013.72 1013.71 1013.71 1013.72 1013.74 1013.76 1013.79 1013.79 1013.79 1013.75 1013.68 1013.58 1013.46 1013.31 1013.15
1011.65 1011.85 1012.05 1012.23 1012.39 1012.52 1012.63 1012.70 1012.75 1012.79 1012.81 1012.85 1012.89 1012.95 1013.04 1013.14 1013.25 1013.37 1013.47 1013.56 1013.63 1013.67 1013.69 1013.70 1013.69 1013.68 1013.68 1013.69 1013.70 1013.71 1013.71 1013.71 1013.69 1013.64 1013.56 1013.45 1013.32 1013.17
1010.88 1011.12 1011.37 1011.60 1011.82 1012.01 1012.17 1012.28 1012.37 1012.43 1012.47 1012.52 1012.57 1012.65 1012.75 1012.87 1013.00 1013.15 1013.29 1013.43 1013.53 1013.61 1013.67 1013.69 1013.70 1013.70 1013.69 1013.68 1013.68 1013.69 1013.69 1013.69 1013.68 1013.64 1013.59 1013.51 1013.40 1013.27
1010.10 1010.35 1010.62 1010.89 1011.15 1011.39 1011.60 1011.76 1011.89 1011.99 1012.06 1012.13 1012.21 1012.30 1012.41 1012.55 1012.72 1012.90 1013.08 1013.26 1013.41 1013.54 1013.63 1013.69 1013.72 1013.72 1013.72 1013.71 1013.70 1013.69 1013.69 1013.69 1013.69 1013.68 1013.65 1013.60 1013.53 1013.43
1009.33 1009.56 1009.82 1010.11 1010.39 1010.66 1010.91 1011.12 1011.29 1011.43 1011.54 1011.64 1011.75 1011.86 1012.00 1012.17 1012.36 1012.58 1012.80 1013.02 1013.22 1013.40 1013.53 1013.63 1013.69 1013.72 1013.73 1013.72 1013.71 1013.71 1013.70 1013.71 1013.72 1013.73 1013.73 1013.72 1013.69 1013.64
1008.56 1008.74 1008.97 1009.23 1009.51 1009.79 1010.06 1010.31 1010.52 1010.70 1010.86 1011.00 1011.13 1011.28 1011.45 1011.64 1011.87 1012.12 1012.39 1012.66 1012.92 1013.15 1013.34 1013.49 1013.59 1013.66 1013.69 1013.70 1013.70 1013.70 1013.70 1013.72 1013.75 1013.78 1013.82 1013.85 1013.87 1013.88
1007.76 1007.86 1008.02 1008.23 1008.48 1008.75 1009.03 1009.29 1009.54 1009.75 1009.95 1010.13 1010.30 1010.49 1010.70 1010.93 1011.20 1011.50 1011.82 1012.14 1012.46 1012.75 1013.01 1013.22 1013.39 1013.50 1013.58 1013.62 1013.65 1013.67 1013.69 1013.72 1013.77 1013.84 1013.92 1014.00 1014.08 1014.15
1006.88 1006.88 1006.95 1007.09 1007.29 1007.52 1007.78 1008.05 1008.31 1008.55 1008.79 1009.01 1009.23 1009.46 1009.71 1010.00 1010.32 1010.67 1011.05 1011.44 1011.83 1012.20 1012.54 1012.83 1013.07 1013.25 1013.39 1013.48 1013.55 1013.60 1013.66 1013.73 1013.81 1013.91 1014.03 1014.17 1014.31 1014.44
1005.88 1005.77 1005.74 1005.79 1005.92 1006.10 1006.33 1006.58 1006.84 1007.11 1007.37 1007.63 1007.91 1008.19 1008.51 1008.85 1009.24 1009.66 1010.11 1010.59 1011.06 1011.52 1011.94 1012.32 1012.64 1012.91 1013.12 1013.29 1013.41 1013.52 1013.62 1013.73 1013.85 1013.99 1014.15 1014.33 1014.53 1014.72
1004.78 1004.56 1004.43 1004.38 1004.43 1004.55 1004.73 1004.95 1005.21 1005.49 1005.78 1006.08 1006.40 1006.75 1007.13 1007.55 1008.01 1008.51 1009.05 1009.61 1010.18 1010.73 1011.25 1011.73 1012.15 1012.51 1012.80 1013.04 1013.24 1013.41 1013.56 1013.71 1013.87 1014.05 1014.24 1014.47 1014.70 1014.94
1003.63 1003.31 1003.08 1002.94 1002.90 1002.95 1003.08 1003.27 1003.51 1003.79 1004.10 1004.44 1004.82 1005.23 1005.68 1006.18 1006.72 1007.31 1007.93 1008.58 1009.24 1009.88 1010.50 1011.07 1011.59 1012.04 1012.42 1012.75 1013.02 1013.25 1013.45 1013.65 1013.84 1014.05 1014.28 1014.53 1014.79 1015.05
1002.51 1002.10 1001.79 1001.57 1001.45 1001.43 1001.50 1001.64 1001.86 1002.13 1002.46 1002.83 1003.25 1003.72 1004.24 1004.81 1005.44 1006.11 1006.82 1007.55 1008.29 1009.02 1009.73 1010.39 1010.98 1011.52 1011.98 1012.38 1012.72 1013.01 1013.27 1013.50 1013.74 1013.97 1014.21 1014.47 1014.74 1015.02
1001.49 1001.03 1000.64 1000.35 1000.16 1000.07 1000.08 1000.18 1000.36 1000.62 1000.95 1001.34 1001.79 1002.31 1002.89 1003.53 1004.23 1004.97 1005.75 1006.55 1007.37 1008.17 1008.94 1009.66 1010.33 1010.93 1011.47 1011.93 1012.33 1012.67 1012.98 1013.25 1013.51 1013.77 1014.02 1014.28 1014.55 1014.81
1000.64 1000.13 999.70 999.35 999.10 998.94 998.89 998.93 999.07 999.30 999.62 1000.01 1000.49 1001.04 1001.67 1002.36 1003.11 1003.91 1004.75 1005.60 1006.47 1007.32 1008.14 1008.91 1009.63 1010.28 1010.86 1011.38 1011.83 1012.22 1012.57 1012.88 1013.17 1013.44 1013.70 1013.96 1014.21 1014.46
Thickness
5677 5676 5676 5677 5678 5678 5679 5679 5678 5679 5682 5687 5689 5693 5696 5698 5699 5704 5707 5706 5708 5709 5711 5712 5713 5714 5715 5716 5716 5717 5717 5718 5718 5719 5719 5719 5719 5719
5675 5675 5675 5677 5676 5676 5677 5679 5680 5680 5681 5686 5687 5690 5692 5695 5695 5699 5702 5702 5704 5705 5706 5708 5709 5710 5710 5711 5712 5712 5713 5713 5714 5714 5715 5715 5715 5715
5676 5675 5674 5674 5675 5675 5676 5677 5679 5680 5678 5682 5686 5688 5689 5691 5693 5695 5698 5699 5701 5701 5702 5703 5704 5705 5706 5706 5707 5708 5708 5708 5709 5709 5710 5710 5710 5711
5676 5675 5674 5674 5673 5674 5674 5676 5677 5678 5678 5677 5680 5683 5685 5687 5689 5690 5693 5695 5697 5696 5697 5698 5699 5700 5700 5701 5702 5702 5703 5703 5703 5704 5705 5705 5705 5705
5676 5675 5675 5674 5672 5673 5673 5674 5675 5676 5676 5676 5677 5679 5681 5683 5684 5686 5689 5690 5692 5692 5692 5693 5693 5694 5695 5695 5696 5697 5697 5698 5698 5698 5699 5699 5699 5700
5676 5675 5675 5674 5672 5673 5673 5673 5673 5673 5673 5674 5674 5675 5676 5679 5680 5681 5683 5685 5686 5687 5687 5688 5688 5688 5689 5690 5690 5691 5691 5691 5692 5692 5692 5693 5693 5693
5676 5675 5673 5671 5670 5670 5671 5672 5672 5671 5671 5671 5671 5672 5673 5674 5675 5678 5678 5680 5681 5682 5682 5683 5684 5684 5684 5684 5684 5684 5685 5685 5685 5685 5685 5686 5686 5686
5675 5674 5673 5671 5668 5666 5666 5666 5668 5669 5669 5669 5669 5669 5671 5673 5673 5673 5674 5675 5674 5677 5677 5677 5678 5678 5678 5678 5677 5677 5677 5678 5678 5678 5678 5678 5678 5679
5675 5673 5672 5671 5668 5669 5666 5664 5664 5664 5664 5668 5668 5668 5668 5670 5669 5669 5670 5670 5670 5672 5671 5670 5672 5672 5672 5671 5670 5669 5670 5670 5670 5670 5671 5671 5671 5671
5673 5672 5671 5670 5668 5667 5667 5666 5666 5665 5663 5664 5666 5666 5667 5666 5667 5666 5666 5666 5666 5665 5666 5665 5666 5666 5666 5664 5662 5662 5662 5662 5662 5662 5662 5663 5663 5663
5672 5670 5669 5668 5663 5661 5663 5663 5662 5662 5659 5658 5658 5659 5658 5658 5660 5660 5660 5661 5660 5660 5661 5661 5661 5661 5660 5659 5657 5655 5655 5654 5654 5654 5654 5655 5655 5656
5669 5668 5663 5662 5659 5657 5660 5660 5658 5659 5659 5657 5656 5655 5655 5655 5653 5656 5657 5657 5657 5655 5655 5655 5655 5655 5653 5653 5652 5650 5649 5648 5647 5647 5646 5646 5647 5648
5666 5665 5663 5657 5655 5653 5654 5656 5655 5654 5656 5655 5655 5654 5653 5652 5652 5652 5652 5652 5651 5651 5650 5649 5649 5648 5648 5647 5646 5645 5644 5643 5642 5641 5640 5639 5639 5639
5662 5662 5660 5654 5651 5649 5649 5649 5647 5647 5650 5650 5649 5648 5648 5647 5647 5646 5645 5645 5644 5644 5642 5642 5642 5641 5640 5640 5639 5638 5636 5635 5635 5635 5634 5632 5632 5631
5657 5654 5652 5648 5646 5645 5643 5643 5642 5644 5645 5644 5644 5643 5643 5642 5641 5639 5638 5637 5636 5635 5634 5634 5634 5634 5633 5633 5632 5631 5629 5628 5626 5626 5626 5625 5625 5625
5647 5645 5642 5641 5640 5640 5640 5639 5640 5641 5640 5639 5639 5637 5636 5634 5633 5633 5632 5630 5629 5627 5626 5626 5625 5625 5625 5624 5624 5623 5621 5620 5618 5617 5616 5616 5616 5615
5642 5640 5640 5639 5638 5638 5638 5638 5636 5635 5634 5633 5632 5631 5629 5628 5627 5626 5625 5625 5624 5622 5619 5617 5616 5615 5614 5614 5614 5614 5612 5610 5609 5607 5606 5606 5606 5606
5632 5635 5636 5636 5636 5635 5634 5633 5632 5630 5629 5627 5626 5625 5624 5622 5621 5619 5618 5617 5616 5615 5612 5609 5608 5607 5606 5603 5600 5603 5603 5601 5599 5597 5597 5597 5597 5596
5625 5630 5631 5631 5631 5630 5629 5628 5626 5625 5622 5621 5619 5618 5617 5616 5615 5613 5612 5610 5608 5607 5605 5603 5601 5601 5602 5601 5594 5589 5591 5591 5589 5589 5588 5588 5587 5587
5620 5623 5624 5624 5624 5623 5622 5621 5619 5617 5615 5614 5612 5611 5610 5609 5608 5606 5605 5603 5601 5599 5596 5594 5593 5592 5592 5592 5589 5583 5578 5579 5579 5579 5578 5577 5576 5574
5613 5614 5616 5616 5615 5615 5614 5613 5611 5609 5608 5606 5605 5603 5602 5601 5600 5599 5597 5591 5592 5591 5589 5586 5583 5578 5579 5578 5577 5575 5571 5567 5567 5567 5567 5567 5568 5568
5605 5605 5606 5606 5606 5606 5604 5603 5602 5601 5599 5598 5596 5595 5594 5593 5592 5590 5588 5586 5584 5582 5579 5576 5571 5570 5570 5570 5570 5568 5564 5560 5557 5554 5553 5552 5554 5557
5595 5595 5596 5596 5596 5596 5595 5594 5593 5592 5591 5589 5588 5586 5585 5584 5582 5581 5579 5577 5574 5572 5569 5566 5563 5562 5561 5560 5559 5558 5555 5553 5551 5549 5547 5542 5540 5538